This demonstration page uses our WeatherBlox Daily Observations layout. Learn more.

Left ArrowRight Arrow

39.92423, -83.80882

Hourly Observations for January 6, 2017

Temp ( °F °C ) Dew Point ( °F °C ) Humidity (%) Winds ( mph kmh ) Pressure ( in mb ) Visibility ( mi km ) Precip ( " mm )
12:56 am 00:56 Mostly Clear 6 -14.4 1 -17.2 79 79 WNW 9 15 30.13 1020 10 16.0934 0 0
1:56 am 01:56 Clear 4 -15.6 1 -17.2 88 88 W 6 9 30.11 1020 10 16.0934 0 0
2:56 am 02:56 Clear 3 -16.1 1 -17.2 91 91 W 3 6 30.14 1021 10 16.0934 0 0
3:56 am 03:56 Clear 1 -17.2 -3 -19.4 83 83 WSW 6 9 30.15 1021 10 16.0934 0 0
4:56 am 04:56 Clear 0 -17.8 -4 -20 83 83 WSW 7 11 30.16 1021 10 16.0934 0 0
5:56 am 05:56 Clear 1 -17.2 -3 -19.4 83 83 WSW 6 9 30.16 1022 10 16.0934 0 0
7:07 am 07:07 Mostly Cloudy with Light Snow -2 -19 -6 -21 84 84 W 5 7 30.27 1025 9 14.48406 0.001 0.001
7:21 am 07:21 Cloudy with Light Snow 0 -18 -2 -19 92 92 W 6 9 30.3 1026 9 14.48406 0.001 0.001
7:56 am 07:56 Partly Cloudy 1 -17.2 -2 -18.9 87 87 WSW 3 6 30.21 1023 9 14.48406 0.001 0.001
8:56 am 08:56 Mostly Sunny 4 -15.6 0 -17.8 83 83 WSW 6 9 30.24 1024 8 12.87472 0 0
9:10 am 09:10 Mostly Cloudy 3 -16 0 -18 85 85 WSW 6 9 30.33 1027 8 12.87472 0 0
9:23 am 09:23 Partly Cloudy 3 -16 0 -18 85 85 W 5 7 30.33 1027 9 14.48406 0 0
9:56 am 09:56 Sunny 8 -13.3 6 -14.4 92 92 WSW 6 9 30.27 1025 10 16.0934 0 0
10:56 am 10:56 Sunny 10 -12.2 7 -13.9 87 87 WSW 7 11 30.27 1025 10 16.0934 0 0
11:46 am 11:46 Mostly Cloudy 18 -8 10 -12 73 73 W 10 17 30.3 1026 10 16.0934 0 0
11:56 am 11:56 Cloudy 21 -6.1 8 -13.3 57 57 WNW 15 24 30.26 1025 10 16.0934 0 0
12:56 pm 12:56 Cloudy 15 -9.4 3 -16.1 59 59 NW 10 17 30.26 1025 7 11.26538 0 0
1:56 pm 13:56 Mostly Cloudy 13 -10.6 1 -17.2 59 59 WNW 12 19 30.26 1025 10 16.0934 0 0
2:12 pm 14:12 Partly Cloudy 12 -11 1 -17 62 62 NW 9 15 30.33 1027 10 16.0934 0 0
2:38 pm 14:38 Mostly Cloudy 12 -11 1 -17 62 62 NW 10 17 30.33 1027 10 16.0934 0 0
2:56 pm 14:56 Mostly Cloudy 12 -11.1 2 -16.7 64 64 WNW 8 13 30.29 1026 10 16.0934 0 0
3:21 pm 15:21 Partly Cloudy 12 -11 0 -18 57 57 WNW 10 17 30.33 1027 10 16.0934 0 0
3:56 pm 15:56 Sunny 10 -12.2 0 -17.8 63 63 NW 7 11 30.31 1027 10 16.0934 0 0
4:56 pm 16:56 Sunny 9 -12.8 -1 -18.3 64 64 NW 5 7 30.34 1027 10 16.0934 0 0
5:56 pm 17:56 Clear 5 -15 -1 -18.3 76 76 NW 6 9 30.36 1028 10 16.0934 0 0
6:56 pm 18:56 Clear 2 -16.7 -2 -18.9 83 83 Calm 30.36 1028 10 16.0934 0 0
7:56 pm 19:56 Clear 0 -17.8 -5 -20.6 79 79 Calm 30.38 1029 10 16.0934 0 0
8:56 pm 20:56 Clear 1 -17.2 -3 -19.4 83 83 NW 6 9 30.38 1029 10 16.0934 0 0
9:56 pm 21:56 Clear 1 -17.2 -3 -19.4 83 83 NNW 5 7 30.4 1030 10 16.0934 0 0
10:56 pm 22:56 Clear 3 -16.1 -2 -18.9 79 79 NW 6 9 30.42 1030 10 16.0934 0 0
11:56 pm 23:56 Clear 2 -16.7 -4 -20 76 76 NW 5 7 30.4 1030 10 16.0934 0 0

Powered by AerisWeather